QPF
0.01 0.01 0.01 0.01 0.00 0.00 0.01 0.01 0.01 0.01 0.01 0.01 0.01 0.01 0.00 0.00 0.00 0.00 0.00 0.01 0.01 0.01 0.01 0.01 0.02 0.02 0.02 0.01 0.01 0.00 0.00 0.00 0.00 0.01 0.01 0.01 0.00 0.00 0.00 0.00 0.00 0.01 0.01 0.01
0.01 0.01 0.01 0.01 0.00 0.00 0.01 0.01 0.01 0.01 0.01 0.01 0.01 0.00 0.00 0.00 0.00 0.00 0.00 0.00 0.00 0.01 0.01 0.01 0.01 0.02 0.02 0.01 0.01 0.00 0.00 0.00 0.00 0.00 0.00 0.01 0.01 0.00 0.00 0.00 0.00 0.00 0.01 0.01
0.01 0.00 0.01 0.01 0.01 0.00 0.01 0.01 0.01 0.01 0.01 0.01 0.01 0.00 0.00 0.01 0.00 0.00 0.00 0.00 0.00 0.00 0.00 0.00 0.00 0.01 0.02 0.02 0.01 0.01 0.01 0.00 0.00 0.00 0.00 0.00 0.00 0.01 0.00 0.00 0.00 0.00 0.00 0.01
0.02 0.01 0.01 0.01 0.01 0.01 0.01 0.01 0.01 0.01 0.01 0.01 0.00 0.01 0.01 0.01 0.01 0.01 0.01 0.00 0.00 0.00 0.00 0.00 0.00 0.01 0.01 0.02 0.02 0.01 0.01 0.01 0.01 0.00 0.00 0.00 0.00 0.00 0.00 0.00 0.00 0.00 0.00 0.00
0.04 0.03 0.01 0.01 0.01 0.01 0.01 0.01 0.01 0.00 0.00 0.00 0.00 0.01 0.01 0.01 0.01 0.01 0.00 0.00 0.00 0.00 0.00 0.01 0.01 0.01 0.01 0.01 0.02 0.02 0.02 0.02 0.01 0.00 0.00 0.00 0.00 0.00 0.00 0.00 0.01 0.01 0.01 0.01
0.05 0.04 0.02 0.00 0.00 0.00 0.01 0.02 0.01 0.00 0.00 0.00 0.01 0.01 0.01 0.01 0.01 0.00 0.00 0.00 0.00 0.00 0.00 0.00 0.01 0.01 0.01 0.01 0.01 0.01 0.01 0.02 0.02 0.01 0.01 0.00 0.00 0.00 0.00 0.00 0.01 0.01 0.01 0.01
0.04 0.03 0.01 0.01 0.00 0.01 0.02 0.02 0.01 0.01 0.01 0.01 0.01 0.01 0.01 0.01 0.01 0.00 0.00 0.00 0.00 0.00 0.01 0.01 0.01 0.01 0.01 0.01 0.01 0.01 0.01 0.02 0.03 0.02 0.01 0.01 0.00 0.00 0.00 0.00 0.01 0.01 0.01 0.01
0.03 0.04 0.02 0.01 0.01 0.02 0.02 0.01 0.01 0.01 0.01 0.01 0.01 0.01 0.01 0.01 0.01 0.00 0.00 0.00 0.01 0.01 0.01 0.01 0.01 0.01 0.01 0.00 0.00 0.01 0.02 0.02 0.03 0.03 0.02 0.01 0.01 0.01 0.00 0.01 0.01 0.01 0.01 0.01
0.03 0.03 0.03 0.02 0.03 0.02 0.01 0.01 0.01 0.01 0.01 0.01 0.01 0.01 0.01 0.01 0.01 0.01 0.01 0.01 0.01 0.01 0.01 0.01 0.01 0.01 0.01 0.01 0.01 0.01 0.02 0.02 0.02 0.03 0.02 0.02 0.01 0.01 0.01 0.01 0.01 0.01 0.01 0.02
0.02 0.02 0.02 0.02 0.02 0.01 0.01 0.01 0.01 0.01 0.01 0.01 0.01 0.01 0.01 0.01 0.01 0.01 0.01 0.01 0.01 0.01 0.00 0.00 0.01 0.01 0.01 0.01 0.01 0.01 0.02 0.02 0.02 0.02 0.03 0.02 0.01 0.01 0.01 0.01 0.01 0.01 0.02 0.02
0.03 0.02 0.02 0.02 0.02 0.01 0.01 0.01 0.01 0.01 0.01 0.01 0.01 0.01 0.00 0.00 0.00 0.01 0.01 0.01 0.00 0.00 0.00 0.00 0.00 0.00 0.01 0.01 0.01 0.01 0.01 0.01 0.01 0.02 0.03 0.02 0.02 0.01 0.01 0.01 0.02 0.03 0.03 0.04
0.03 0.02 0.03 0.02 0.02 0.02 0.02 0.01 0.01 0.01 0.01 0.01 0.00 0.00 0.00 0.00 0.00 0.00 0.00 0.00 0.00 0.00 0.00 0.00 0.00 0.00 0.00 0.01 0.01 0.02 0.01 0.01 0.01 0.02 0.03 0.03 0.03 0.02 0.02 0.02 0.02 0.02 0.03 0.03
0.03 0.02 0.02 0.03 0.03 0.02 0.01 0.01 0.01 0.01 0.01 0.01 0.00 0.00 0.00 0.00 0.00 0.00 0.00 0.00 0.00 0.00 0.00 0.01 0.00 0.00 0.01 0.01 0.01 0.01 0.01 0.01 0.01 0.01 0.02 0.02 0.03 0.03 0.02 0.02 0.02 0.02 0.01 0.02
0.02 0.02 0.02 0.02 0.02 0.02 0.01 0.01 0.01 0.01 0.01 0.00 0.00 0.01 0.01 0.01 0.00 0.00 0.00 0.00 0.00 0.00 0.00 0.00 0.00 0.00 0.01 0.01 0.01 0.01 0.01 0.02 0.02 0.02 0.02 0.02 0.02 0.02 0.02 0.02 0.02 0.02 0.02 0.02
0.02 0.02 0.02 0.01 0.01 0.01 0.01 0.01 0.01 0.00 0.00 0.00 0.00 0.01 0.01 0.01 0.01 0.01 0.00 0.00 0.00 0.00 0.00 0.00 0.00 0.00 0.00 0.00 0.01 0.01 0.01 0.01 0.02 0.02 0.02 0.02 0.02 0.02 0.02 0.02 0.02 0.02 0.02 0.02
0.02 0.01 0.01 0.01 0.01 0.01 0.01 0.01 0.01 0.00 0.00 0.00 0.00 0.00 0.01 0.01 0.01 0.00 0.00 0.00 0.00 0.00 0.00 0.00 0.00 0.00 0.00 0.00 0.00 0.01 0.01 0.01 0.01 0.02 0.02 0.02 0.02 0.02 0.02 0.02 0.02 0.02 0.02 0.02
0.02 0.02 0.02 0.02 0.01 0.01 0.01 0.01 0.01 0.01 0.01 0.01 0.01 0.01 0.00 0.00 0.00 0.00 0.00 0.00 0.00 0.00 0.00 0.00 0.00 0.00 0.00 0.00 0.00 0.01 0.01 0.01 0.01 0.01 0.02 0.02 0.02 0.02 0.02 0.02 0.01 0.01 0.01 0.01
0.02 0.02 0.02 0.02 0.02 0.02 0.01 0.01 0.01 0.01 0.01 0.01 0.01 0.00 0.00 0.00 0.00 0.00 0.00 0.00 0.00 0.00 0.00 0.00 0.00 0.00 0.00 0.00 0.01 0.01 0.01 0.01 0.01 0.01 0.02 0.02 0.02 0.02 0.02 0.02 0.01 0.01 0.01 0.01
0.01 0.01 0.02 0.02 0.02 0.02 0.02 0.02 0.02 0.01 0.01 0.01 0.01 0.00 0.00 0.00 0.00 0.01 0.00 0.00 0.00 0.00 0.00 0.00 0.00 0.01 0.00 0.00 0.01 0.01 0.01 0.01 0.01 0.01 0.01 0.01 0.02 0.02 0.02 0.02 0.02 0.01 0.01 0.01
0.01 0.01 0.01 0.01 0.01 0.01 0.01 0.01 0.01 0.01 0.01 0.01 0.01 0.01 0.00 0.00 0.01 0.01 0.00 0.00 0.01 0.01 0.01 0.01 0.01 0.00 0.00 0.01 0.01 0.01 0.01 0.01 0.01 0.01 0.01 0.01 0.01 0.01 0.01 0.02 0.02 0.01 0.01 0.01
0.01 0.01 0.01 0.01 0.01 0.01 0.01 0.01 0.01 0.01 0.01 0.01 0.01 0.01 0.01 0.01 0.01 0.01 0.01 0.01 0.01 0.01 0.01 0.01 0.01 0.01 0.01 0.01 0.01 0.01 0.01 0.01 0.01 0.01 0.01 0.01 0.01 0.01 0.01 0.01 0.01 0.01 0.01 0.01
0.01 0.01 0.01 0.01 0.01 0.01 0.01 0.01 0.01 0.01 0.01 0.00 0.00 0.01 0.01 0.01 0.01 0.01 0.01 0.01 0.01 0.01 0.01 0.01 0.01 0.01 0.02 0.02 0.02 0.01 0.01 0.01 0.01 0.01 0.01 0.01 0.01 0.01 0.01 0.01 0.01 0.01 0.01 0.01
0.00 0.00 0.00 0.00 0.01 0.01 0.01 0.01 0.01 0.01 0.01 0.01 0.01 0.01 0.01 0.01 0.01 0.01 0.01 0.01 0.01 0.01 0.01 0.01 0.01 0.02 0.02 0.02 0.01 0.01 0.01 0.01 0.01 0.01 0.01 0.01 0.01 0.01 0.01 0.01 0.01 0.01 0.01 0.01
0.00 0.00 0.00 0.00 0.00 0.00 0.01 0.00 0.00 0.01 0.01 0.01 0.01 0.01 0.01 0.01 0.01 0.01 0.02 0.02 0.01 0.01 0.01 0.01 0.01 0.02 0.02 0.02 0.01 0.01 0.01 0.01 0.01 0.01 0.01 0.01 0.01 0.01 0.01 0.01 0.01 0.01 0.01 0.01
0.00 0.00 0.01 0.01 0.01 0.01 0.01 0.00 0.01 0.01 0.01 0.01 0.01 0.01 0.01 0.01 0.01 0.01 0.01 0.01 0.01 0.01 0.01 0.01 0.02 0.02 0.01 0.01 0.01 0.01 0.01 0.01 0.01 0.01 0.01 0.01 0.01 0.01 0.01 0.01 0.01 0.01 0.01 0.01
0.01 0.01 0.01 0.01 0.01 0.01 0.01 0.01 0.01 0.01 0.01 0.01 0.01 0.01 0.01 0.01 0.01 0.01 0.01 0.01 0.01 0.01 0.01 0.01 0.01 0.01 0.01 0.01 0.01 0.00 0.00 0.00 0.00 0.00 0.00 0.00 0.01 0.01 0.01 0.01 0.01 0.01 0.01 0.01
0.01 0.01 0.01 0.01 0.01 0.01 0.01 0.01 0.01 0.01 0.01 0.01 0.01 0.01 0.01 0.01 0.01 0.01 0.01 0.01 0.01 0.01 0.01 0.01 0.01 0.01 0.01 0.00 0.00 0.00 0.00 0.00 0.00 0.00 0.01 0.01 0.01 0.01 0.01 0.01 0.01 0.00 0.00 0.00
MSLP
1020.42 1020.16 1019.72 1019.07 1018.21 1017.17 1015.99 1014.78 1013.63 1012.67 1011.99 1011.69 1011.84 1012.42 1013.40 1014.70 1016.23 1017.86 1019.49 1021.02 1022.39 1023.55 1024.51 1025.28 1025.89 1026.36 1026.73 1027.02 1027.22 1027.35 1027.41 1027.38 1027.29 1027.13 1026.94 1026.72 1026.49 1026.26 1026.03 1025.78 1025.50 1025.16 1024.76 1024.28
1020.05 1019.59 1018.93 1018.07 1017.03 1015.84 1014.59 1013.38 1012.31 1011.48 1011.00 1010.93 1011.30 1012.10 1013.25 1014.68 1016.28 1017.93 1019.54 1021.03 1022.34 1023.45 1024.37 1025.11 1025.71 1026.20 1026.59 1026.90 1027.13 1027.28 1027.34 1027.31 1027.21 1027.04 1026.83 1026.60 1026.36 1026.13 1025.89 1025.64 1025.35 1025.01 1024.59 1024.10
1019.48 1018.84 1018.02 1017.03 1015.89 1014.68 1013.47 1012.37 1011.47 1010.88 1010.65 1010.83 1011.44 1012.43 1013.72 1015.22 1016.83 1018.44 1019.97 1021.34 1022.53 1023.53 1024.36 1025.04 1025.60 1026.06 1026.45 1026.76 1027.00 1027.16 1027.22 1027.19 1027.08 1026.91 1026.69 1026.44 1026.20 1025.96 1025.72 1025.47 1025.18 1024.84 1024.41 1023.91
1018.73 1017.98 1017.08 1016.06 1014.97 1013.85 1012.81 1011.93 1011.30 1010.99 1011.05 1011.50 1012.33 1013.47 1014.84 1016.35 1017.89 1019.39 1020.76 1021.96 1022.98 1023.82 1024.51 1025.08 1025.56 1025.97 1026.33 1026.62 1026.85 1027.00 1027.07 1027.04 1026.92 1026.75 1026.52 1026.28 1026.04 1025.80 1025.56 1025.31 1025.02 1024.68 1024.26 1023.75
1017.91 1017.14 1016.27 1015.35 1014.40 1013.51 1012.74 1012.17 1011.86 1011.87 1012.22 1012.90 1013.90 1015.12 1016.50 1017.94 1019.35 1020.66 1021.83 1022.81 1023.61 1024.26 1024.79 1025.23 1025.61 1025.95 1026.25 1026.51 1026.72 1026.86 1026.91 1026.87 1026.76 1026.58 1026.36 1026.12 1025.88 1025.65 1025.42 1025.18 1024.90 1024.56 1024.13 1023.63
1017.18 1016.48 1015.75 1015.02 1014.34 1013.75 1013.32 1013.09 1013.12 1013.43 1014.03 1014.89 1015.98 1017.21 1018.52 1019.82 1021.03 1022.12 1023.03 1023.77 1024.36 1024.81 1025.17 1025.47 1025.74 1026.00 1026.24 1026.46 1026.63 1026.74 1026.77 1026.72 1026.60 1026.43 1026.21 1025.98 1025.75 1025.53 1025.30 1025.06 1024.79 1024.45 1024.04 1023.54
1016.72 1016.19 1015.68 1015.23 1014.86 1014.61 1014.53 1014.64 1014.97 1015.53 1016.30 1017.26 1018.35 1019.51 1020.67 1021.76 1022.74 1023.57 1024.23 1024.74 1025.10 1025.37 1025.59 1025.77 1025.94 1026.12 1026.30 1026.46 1026.59 1026.66 1026.67 1026.60 1026.47 1026.29 1026.07 1025.85 1025.62 1025.40 1025.18 1024.94 1024.67 1024.34 1023.93 1023.44
1016.75 1016.45 1016.22 1016.07 1016.02 1016.10 1016.32 1016.71 1017.26 1017.97 1018.82 1019.77 1020.77 1021.78 1022.73 1023.58 1024.31 1024.88 1025.30 1025.59 1025.79 1025.91 1026.01 1026.09 1026.20 1026.31 1026.43 1026.53 1026.61 1026.63 1026.60 1026.50 1026.35 1026.15 1025.93 1025.70 1025.47 1025.25 1025.03 1024.79 1024.51 1024.18 1023.77 1023.30
1017.43 1017.39 1017.42 1017.55 1017.78 1018.12 1018.57 1019.13 1019.80 1020.55 1021.37 1022.22 1023.06 1023.85 1024.55 1025.15 1025.61 1025.95 1026.17 1026.30 1026.36 1026.39 1026.40 1026.43 1026.48 1026.54 1026.61 1026.66 1026.67 1026.64 1026.56 1026.41 1026.23 1026.01 1025.77 1025.52 1025.29 1025.05 1024.81 1024.56 1024.27 1023.94 1023.54 1023.08
1018.84 1019.03 1019.29 1019.64 1020.05 1020.55 1021.11 1021.73 1022.40 1023.09 1023.78 1024.45 1025.07 1025.61 1026.06 1026.40 1026.64 1026.78 1026.85 1026.86 1026.83 1026.80 1026.78 1026.78 1026.79 1026.81 1026.82 1026.81 1026.76 1026.66 1026.52 1026.32 1026.09 1025.84 1025.57 1025.31 1025.05 1024.80 1024.54 1024.27 1023.96 1023.62 1023.23 1022.79
1020.96 1021.32 1021.72 1022.17 1022.67 1023.20 1023.76 1024.33 1024.90 1025.44 1025.94 1026.39 1026.76 1027.05 1027.25 1027.38 1027.43 1027.42 1027.38 1027.31 1027.24 1027.19 1027.15 1027.12 1027.10 1027.08 1027.04 1026.96 1026.84 1026.67 1026.45 1026.20 1025.92 1025.63 1025.34 1025.05 1024.77 1024.50 1024.22 1023.92 1023.60 1023.25 1022.86 1022.44
1023.65 1024.07 1024.50 1024.95 1025.41 1025.87 1026.33 1026.76 1027.16 1027.51 1027.80 1028.01 1028.15 1028.22 1028.22 1028.16 1028.08 1027.96 1027.85 1027.74 1027.65 1027.57 1027.52 1027.47 1027.41 1027.33 1027.22 1027.07 1026.87 1026.62 1026.34 1026.03 1025.71 1025.39 1025.08 1024.78 1024.48 1024.20 1023.90 1023.59 1023.25 1022.88 1022.50 1022.09
1026.61 1027.00 1027.36 1027.70 1028.03 1028.35 1028.64 1028.90 1029.11 1029.26 1029.35 1029.37 1029.32 1029.21 1029.06 1028.88 1028.69 1028.50 1028.34 1028.19 1028.08 1027.98 1027.89 1027.80 1027.69 1027.54 1027.35 1027.11 1026.83 1026.51 1026.17 1025.81 1025.46 1025.13 1024.81 1024.51 1024.22 1023.93 1023.63 1023.31 1022.96 1022.59 1022.20 1021.81
1029.57 1029.82 1030.02 1030.19 1030.35 1030.48 1030.59 1030.67 1030.71 1030.70 1030.64 1030.52 1030.34 1030.11 1029.86 1029.60 1029.34 1029.10 1028.88 1028.70 1028.54 1028.39 1028.25 1028.08 1027.89 1027.66 1027.38 1027.06 1026.69 1026.32 1025.93 1025.55 1025.19 1024.86 1024.56 1024.28 1024.01 1023.74 1023.45 1023.13 1022.79 1022.42 1022.03 1021.65
1032.23 1032.29 1032.29 1032.25 1032.21 1032.16 1032.11 1032.06 1031.98 1031.87 1031.72 1031.52 1031.27 1030.99 1030.68 1030.36 1030.05 1029.76 1029.48 1029.24 1029.00 1028.78 1028.54 1028.29 1028.00 1027.66 1027.29 1026.89 1026.47 1026.04 1025.63 1025.25 1024.91 1024.61 1024.35 1024.12 1023.89 1023.65 1023.38 1023.08 1022.75 1022.38 1022.01 1021.64
1034.39 1034.24 1034.02 1033.79 1033.58 1033.39 1033.24 1033.10 1032.97 1032.82 1032.64 1032.43 1032.16 1031.85 1031.51 1031.15 1030.79 1030.43 1030.08 1029.74 1029.41 1029.08 1028.73 1028.37 1027.97 1027.54 1027.09 1026.62 1026.16 1025.71 1025.30 1024.94 1024.64 1024.39 1024.19 1024.01 1023.84 1023.64 1023.42 1023.15 1022.84 1022.49 1022.12 1021.76
1035.97 1035.62 1035.22 1034.84 1034.51 1034.24 1034.03 1033.87 1033.74 1033.61 1033.45 1033.25 1032.99 1032.68 1032.31 1031.91 1031.48 1031.04 1030.59 1030.14 1029.70 1029.25 1028.79 1028.31 1027.82 1027.31 1026.79 1026.29 1025.80 1025.36 1024.97 1024.65 1024.40 1024.21 1024.07 1023.96 1023.84 1023.71 1023.53 1023.30 1023.01 1022.68 1022.33 1021.99
1037.02 1036.51 1035.98 1035.50 1035.11 1034.81 1034.61 1034.48 1034.39 1034.29 1034.18 1034.00 1033.75 1033.42 1033.02 1032.55 1032.04 1031.50 1030.95 1030.38 1029.82 1029.26 1028.70 1028.13 1027.57 1027.01 1026.46 1025.94 1025.46 1025.04 1024.69 1024.42 1024.22 1024.09 1024.00 1023.95 1023.88 1023.80 1023.66 1023.47 1023.22 1022.92 1022.59 1022.26
1037.65 1037.04 1036.46 1035.95 1035.55 1035.27 1035.10 1035.02 1034.97 1034.92 1034.82 1034.65 1034.38 1034.01 1033.55 1033.01 1032.40 1031.76 1031.10 1030.43 1029.77 1029.13 1028.49 1027.88 1027.28 1026.70 1026.16 1025.65 1025.20 1024.81 1024.50 1024.27 1024.12 1024.03 1023.98 1023.96 1023.93 1023.88 1023.78 1023.62 1023.40 1023.13 1022.83 1022.52
1038.06 1037.42 1036.83 1036.34 1035.97 1035.73 1035.61 1035.56 1035.54 1035.49 1035.39 1035.19 1034.87 1034.43 1033.88 1033.25 1032.55 1031.81 1031.06 1030.31 1029.59 1028.90 1028.24 1027.62 1027.03 1026.47 1025.96 1025.49 1025.08 1024.73 1024.45 1024.25 1024.11 1024.04 1024.00 1023.99 1023.97 1023.93 1023.84 1023.71 1023.52 1023.28 1023.02 1022.75
1038.41 1037.80 1037.24 1036.79 1036.47 1036.27 1036.17 1036.13 1036.10 1036.02 1035.86 1035.59 1035.18 1034.65 1034.01 1033.28 1032.49 1031.68 1030.87 1030.09 1029.35 1028.66 1028.03 1027.44 1026.89 1026.39 1025.93 1025.51 1025.14 1024.82 1024.56 1024.36 1024.21 1024.12 1024.07 1024.03 1024.00 1023.95 1023.86 1023.74 1023.57 1023.37 1023.14 1022.90
1038.81 1038.24 1037.74 1037.35 1037.07 1036.89 1036.79 1036.72 1036.63 1036.48 1036.23 1035.85 1035.34 1034.70 1033.96 1033.15 1032.30 1031.45 1030.62 1029.85 1029.14 1028.49 1027.92 1027.40 1026.92 1026.49 1026.09 1025.72 1025.38 1025.08 1024.81 1024.59 1024.41 1024.28 1024.17 1024.09 1024.02 1023.93 1023.84 1023.71 1023.55 1023.37 1023.18 1022.98
1039.27 1038.77 1038.33 1037.98 1037.72 1037.55 1037.41 1037.28 1037.10 1036.84 1036.47 1035.98 1035.35 1034.62 1033.80 1032.93 1032.06 1031.20 1030.40 1029.67 1029.03 1028.46 1027.97 1027.54 1027.15 1026.78 1026.44 1026.11 1025.79 1025.48 1025.19 1024.92 1024.69 1024.48 1024.31 1024.16 1024.03 1023.90 1023.77 1023.63 1023.48 1023.31 1023.14 1022.97
1039.76 1039.32 1038.94 1038.62 1038.36 1038.16 1037.96 1037.74 1037.46 1037.09 1036.60 1035.99 1035.28 1034.47 1033.61 1032.72 1031.85 1031.03 1030.29 1029.64 1029.08 1028.60 1028.20 1027.85 1027.53 1027.23 1026.92 1026.61 1026.28 1025.95 1025.62 1025.30 1024.99 1024.71 1024.46 1024.23 1024.03 1023.85 1023.68 1023.51 1023.35 1023.18 1023.02 1022.86
1040.22 1039.83 1039.48 1039.18 1038.91 1038.66 1038.39 1038.08 1037.70 1037.22 1036.63 1035.95 1035.17 1034.32 1033.45 1032.59 1031.76 1031.01 1030.34 1029.77 1029.30 1028.91 1028.58 1028.30 1028.03 1027.76 1027.47 1027.15 1026.80 1026.43 1026.04 1025.65 1025.28 1024.91 1024.58 1024.28 1024.01 1023.77 1023.55 1023.34 1023.15 1022.96 1022.79 1022.62
1040.57 1040.23 1039.90 1039.60 1039.31 1039.01 1038.68 1038.29 1037.82 1037.27 1036.62 1035.89 1035.09 1034.25 1033.41 1032.60 1031.84 1031.16 1030.57 1030.08 1029.68 1029.35 1029.07 1028.82 1028.57 1028.30 1027.99 1027.65 1027.26 1026.84 1026.39 1025.94 1025.49 1025.06 1024.65 1024.28 1023.94 1023.63 1023.35 1023.09 1022.85 1022.62 1022.41 1022.21
1040.82 1040.50 1040.19 1039.88 1039.57 1039.23 1038.85 1038.40 1037.89 1037.29 1036.62 1035.89 1035.11 1034.31 1033.52 1032.77 1032.09 1031.48 1030.97 1030.53 1030.18 1029.88 1029.61 1029.35 1029.08 1028.78 1028.44 1028.04 1027.60 1027.13 1026.63 1026.11 1025.60 1025.11 1024.63 1024.19 1023.79 1023.41 1023.06 1022.73 1022.42 1022.13 1021.86 1021.60
Thickness
5442 5445 5444 5443 5442 5437 5434 5434 5433 5440 5436 5436 5424 5416 5410 5403 5397 5391 5386 5381 5376 5370 5365 5362 5358 5355 5352 5348 5344 5340 5335 5331 5328 5325 5321 5318 5314 5311 5308 5305 5303 5300 5298 5297
5426 5431 5429 5430 5432 5430 5428 5425 5422 5423 5422 5417 5409 5401 5395 5389 5385 5380 5375 5371 5366 5361 5356 5351 5347 5344 5341 5337 5333 5329 5324 5320 5317 5314 5310 5307 5303 5300 5297 5294 5292 5290 5287 5286
5414 5414 5416 5419 5423 5420 5416 5409 5409 5411 5411 5397 5392 5387 5381 5376 5371 5367 5363 5359 5354 5349 5344 5341 5337 5334 5329 5326 5322 5318 5314 5310 5307 5303 5299 5296 5292 5289 5286 5283 5280 5279 5277 5276
5395 5398 5404 5428 5413 5411 5403 5394 5390 5390 5387 5383 5380 5374 5368 5364 5360 5356 5352 5347 5342 5337 5333 5330 5326 5322 5319 5315 5311 5307 5303 5299 5296 5292 5288 5285 5281 5278 5274 5272 5269 5268 5268 5267
5383 5385 5400 5408 5402 5392 5388 5385 5380 5377 5373 5368 5363 5359 5357 5355 5350 5344 5339 5335 5330 5325 5321 5317 5315 5312 5308 5304 5299 5296 5292 5289 5285 5281 5277 5274 5270 5267 5264 5261 5259 5258 5258 5258
5373 5379 5393 5404 5385 5379 5378 5377 5373 5366 5361 5355 5352 5349 5351 5344 5337 5332 5327 5322 5318 5313 5310 5306 5303 5300 5296 5292 5289 5286 5283 5279 5275 5271 5268 5264 5261 5257 5254 5251 5250 5249 5249 5248
5365 5369 5381 5374 5366 5371 5372 5377 5362 5354 5349 5343 5341 5340 5335 5329 5325 5320 5315 5311 5307 5302 5298 5295 5292 5288 5285 5282 5278 5276 5272 5268 5265 5261 5258 5255 5252 5248 5245 5242 5240 5239 5239 5240
5353 5357 5370 5356 5354 5356 5358 5350 5345 5340 5335 5331 5327 5323 5320 5317 5313 5309 5304 5300 5296 5291 5287 5283 5280 5277 5274 5271 5268 5265 5261 5257 5254 5251 5248 5246 5242 5239 5236 5233 5231 5230 5230 5231
5352 5360 5351 5342 5342 5339 5335 5332 5330 5327 5323 5319 5314 5310 5308 5304 5300 5296 5292 5289 5285 5280 5276 5272 5269 5266 5263 5261 5258 5254 5251 5247 5245 5242 5239 5237 5233 5231 5228 5225 5223 5224 5223 5224
5332 5337 5334 5329 5326 5323 5321 5318 5316 5314 5310 5307 5302 5298 5294 5292 5288 5284 5281 5277 5273 5269 5265 5262 5259 5256 5253 5251 5249 5245 5242 5239 5237 5234 5231 5228 5226 5225 5222 5219 5217 5217 5217 5217
5320 5323 5320 5319 5314 5311 5308 5306 5304 5301 5298 5295 5291 5287 5283 5279 5276 5273 5270 5266 5262 5259 5256 5253 5250 5247 5245 5243 5240 5237 5235 5232 5229 5227 5224 5221 5219 5217 5216 5214 5212 5213 5212 5211
5317 5313 5307 5309 5305 5300 5297 5295 5293 5289 5286 5282 5279 5276 5272 5268 5264 5261 5258 5255 5252 5248 5245 5243 5240 5238 5236 5234 5232 5229 5228 5225 5222 5219 5217 5215 5213 5211 5210 5209 5209 5209 5208 5207
5301 5299 5296 5295 5292 5289 5285 5283 5281 5278 5274 5271 5267 5264 5261 5257 5254 5250 5247 5244 5242 5239 5236 5233 5231 5230 5228 5226 5224 5222 5220 5218 5215 5213 5211 5208 5207 5205 5203 5204 5203 5203 5202 5201
5285 5285 5284 5282 5280 5277 5273 5270 5267 5264 5261 5259 5256 5252 5249 5246 5243 5240 5237 5235 5232 5230 5227 5224 5223 5222 5221 5219 5217 5215 5213 5211 5209 5206 5204 5202 5200 5198 5197 5196 5196 5195 5195 5194
5273 5272 5271 5270 5267 5264 5261 5258 5255 5252 5249 5246 5243 5241 5238 5236 5233 5231 5229 5226 5224 5221 5219 5217 5215 5214 5213 5211 5209 5207 5205 5204 5202 5200 5198 5196 5194 5192 5190 5189 5188 5187 5187 5186
5260 5259 5257 5256 5254 5252 5249 5246 5244 5242 5239 5236 5233 5231 5229 5227 5224 5222 5220 5217 5215 5213 5212 5210 5208 5208 5206 5204 5202 5200 5198 5198 5196 5194 5192 5190 5188 5186 5184 5183 5181 5180 5179 5178
5247 5247 5246 5244 5243 5241 5239 5237 5234 5232 5229 5227 5225 5223 5220 5218 5215 5213 5211 5209 5207 5206 5205 5204 5202 5201 5199 5197 5195 5193 5192 5190 5190 5187 5185 5183 5181 5179 5178 5176 5174 5173 5171 5171
5237 5236 5235 5234 5232 5230 5229 5227 5225 5223 5221 5219 5216 5214 5211 5209 5207 5205 5203 5201 5199 5198 5198 5197 5195 5194 5192 5190 5188 5187 5185 5183 5181 5180 5178 5176 5175 5173 5171 5169 5168 5166 5165 5164
5227 5226 5225 5224 5222 5221 5219 5218 5216 5214 5212 5209 5207 5205 5203 5201 5199 5197 5195 5193 5192 5191 5191 5189 5189 5188 5185 5183 5182 5180 5178 5176 5175 5173 5171 5170 5168 5166 5164 5163 5162 5160 5159 5158
5217 5217 5216 5214 5213 5211 5211 5209 5207 5205 5203 5201 5199 5197 5195 5193 5191 5189 5187 5186 5186 5185 5184 5183 5182 5180 5178 5176 5176 5173 5171 5169 5168 5166 5165 5163 5161 5160 5158 5157 5155 5154 5153 5152
5206 5206 5206 5205 5204 5203 5201 5200 5198 5197 5195 5194 5192 5190 5189 5186 5184 5182 5180 5181 5181 5179 5177 5177 5175 5173 5171 5170 5169 5166 5163 5162 5161 5159 5157 5156 5155 5153 5152 5150 5149 5148 5147 5147
5197 5196 5196 5196 5195 5193 5192 5191 5190 5190 5188 5187 5185 5184 5182 5180 5178 5176 5175 5174 5173 5173 5171 5169 5167 5166 5165 5164 5161 5159 5156 5155 5153 5152 5150 5149 5148 5146 5145 5144 5142 5142 5141 5141
5188 5188 5187 5187 5185 5184 5183 5183 5182 5182 5181 5180 5179 5178 5176 5174 5172 5170 5169 5168 5166 5165 5164 5162 5161 5160 5160 5156 5154 5151 5150 5148 5146 5145 5144 5142 5141 5140 5139 5138 5137 5136 5136 5135
5180 5180 5178 5178 5177 5176 5176 5176 5176 5175 5174 5173 5172 5171 5169 5167 5165 5163 5161 5161 5159 5158 5156 5155 5154 5153 5151 5148 5146 5144 5142 5141 5140 5139 5138 5136 5135 5134 5134 5133 5132 5131 5131 5130
5171 5170 5170 5170 5169 5170 5169 5168 5168 5168 5167 5166 5165 5163 5162 5160 5157 5156 5154 5152 5151 5150 5148 5147 5146 5145 5142 5140 5138 5137 5136 5135 5134 5133 5132 5131 5130 5129 5128 5127 5127 5126 5126 5126
5162 5162 5162 5162 5161 5161 5161 5160 5160 5159 5159 5158 5156 5155 5154 5152 5150 5148 5146 5145 5143 5142 5140 5139 5137 5136 5135 5133 5132 5131 5130 5129 5128 5127 5126 5125 5125 5124 5123 5123 5122 5122 5122 5122
5155 5154 5154 5154 5153 5153 5153 5152 5152 5151 5151 5149 5148 5147 5146 5144 5142 5140 5139 5138 5136 5135 5133 5132 5131 5130 5128 5127 5126 5125 5124 5123 5122 5121 5121 5120 5120 5119 5119 5119 5119 5118 5119 5119